When you browse on this site, cookies collect data to enhance your experience and personalize the content and advertising you see.
Visit our Privacy Policy to learn more. By continuing to use the site, you agree to this use of cookies and data.
  • In Latvia
  • List of Countries
  • For 7 days
  • Water Temperature
  • Weather Map
  • Weather Widgets
  • user-avatar
    Login

    Hourly Weather Hubcha

    Today, 7 April, Tuesday

    Time Temperature Precipitation Wind Pressure Humidity
    00:00 +6°C° 0 mm 2 mps 749 mmHg 47%
    01:00 +5°C° 0 mm 2 mps 749 mmHg 47%
    02:00 +5°C° 0 mm 2 mps 749 mmHg 48%
    03:00 +5°C° 0 mm 2 mps 749 mmHg 48%
    04:00 +4°C° 0 mm 2 mps 749 mmHg 48%
    05:00 +5°C° 0 mm 1 mps 749 mmHg 48%
    06:00 +5°C° 0 mm 2 mps 749 mmHg 46%
    07:00 +7°C° 0 mm 2 mps 749 mmHg 44%
    08:00 +8°C° 0 mm 3 mps 750 mmHg 41%
    09:00 +10°C° 0 mm 3 mps 750 mmHg 37%
    10:00 +11°C° 0 mm 4 mps 750 mmHg 33%
    11:00 +13°C° 0 mm 4 mps 750 mmHg 28%
    12:00 +14°C° 0 mm 4 mps 750 mmHg 27%
    13:00 +15°C° 0 mm 4 mps 750 mmHg 26%
    14:00 +15°C° 0 mm 4 mps 749 mmHg 25%
    15:00 +15°C° 0 mm 4 mps 749 mmHg 26%
    16:00 +16°C° 0 mm 3 mps 749 mmHg 27%
    17:00 +16°C° 0 mm 3 mps 748 mmHg 28%
    18:00 +13°C° 0 mm 3 mps 748 mmHg 32%
    19:00 +11°C° 0 mm 3 mps 748 mmHg 36%
    20:00 +9°C° 0 mm 2 mps 748 mmHg 40%
    21:00 +9°C° 0 mm 2 mps 748 mmHg 41%
    22:00 +8°C° 0 mm 3 mps 748 mmHg 42%
    23:00 +8°C° 0 mm 3 mps 748 mmHg 43%

    Tomorrow, 8 April, Wednesday

    Time Temperature Precipitation Wind Pressure Humidity
    00:00 +7°C° 0 mm 3 mps 748 mmHg 44%
    01:00 +7°C° 0 mm 3 mps 748 mmHg 44%
    02:00 +5°C° 0 mm 3 mps 747 mmHg 45%
    03:00 +5°C° 0 mm 3 mps 747 mmHg 45%
    04:00 +5°C° 0 mm 3 mps 747 mmHg 46%
    05:00 +4°C° 0 mm 3 mps 746 mmHg 47%
    06:00 +7°C° 0 mm 3 mps 746 mmHg 46%
    07:00 +8°C° 0 mm 3 mps 746 mmHg 45%
    08:00 +9°C° 0 mm 3 mps 746 mmHg 44%
    09:00 +11°C° 0 mm 3 mps 746 mmHg 42%
    10:00 +13°C° 0 mm 3 mps 746 mmHg 41%
    11:00 +16°C° 0 mm 3 mps 746 mmHg 40%
    12:00 +17°C° 0 mm 3 mps 745 mmHg 38%
    13:00 +18°C° 0 mm 4 mps 745 mmHg 37%
    14:00 +19°C° 0 mm 4 mps 744 mmHg 36%
    15:00 +18°C° 0 mm 4 mps 744 mmHg 39%
    16:00 +18°C° 0 mm 4 mps 744 mmHg 43%
    17:00 +18°C° 0 mm 3 mps 743 mmHg 46%
    18:00 +16°C° 0 mm 3 mps 743 mmHg 52%
    19:00 +13°C° 0 mm 3 mps 743 mmHg 57%
    20:00 +13°C° 0 mm 2 mps 743 mmHg 63%
    21:00 +12°C° 0 mm 2 mps 743 mmHg 62%
    22:00 +11°C° 0 mm 1 mps 743 mmHg 61%
    23:00 +10°C° 0 mm 1 mps 742 mmHg 60%

    Day after tomorrow, 9 April, Thursday

    Time Temperature Precipitation Wind Pressure Humidity
    00:00 +10°C° 0 mm 1 mps 742 mmHg 60%
    01:00 +8°C° 0 mm 0 mps 742 mmHg 61%
    02:00 +8°C° 0 mm 0 mps 742 mmHg 62%
    03:00 +7°C° 0 mm 0 mps 741 mmHg 63%
    04:00 +7°C° 0 mm 0 mps 741 mmHg 64%
    05:00 +7°C° 0 mm 0 mps 741 mmHg 65%
    06:00 +9°C° 0 mm 1 mps 741 mmHg 62%
    07:00 +11°C° 0 mm 1 mps 741 mmHg 59%
    08:00 +12°C° 0 mm 1 mps 741 mmHg 56%
    09:00 +14°C° 0 mm 2 mps 740 mmHg 53%
    10:00 +15°C° 0 mm 2 mps 740 mmHg 50%
    11:00 +17°C° 0 mm 3 mps 740 mmHg 47%
    12:00 +18°C° 0 mm 3 mps 739 mmHg 44%
    13:00 +19°C° 0 mm 3 mps 739 mmHg 41%
    14:00 +19°C° 0 mm 3 mps 739 mmHg 38%
    15:00 +19°C° 0 mm 3 mps 738 mmHg 38%
    16:00 +19°C° 0 mm 3 mps 738 mmHg 38%
    17:00 +19°C° 0 mm 4 mps 737 mmHg 38%
    18:00 +17°C° 0 mm 3 mps 737 mmHg 43%
    19:00 +14°C° 0 mm 3 mps 737 mmHg 48%
    20:00 +14°C° 0 mm 2 mps 736 mmHg 52%
    21:00 +13°C° 0 mm 2 mps 736 mmHg 54%
    22:00 +13°C° 0 mm 2 mps 736 mmHg 56%
    23:00 +12°C° 0 mm 2 mps 736 mmHg 58%

    10 April, Friday

    Time Temperature Precipitation Wind Pressure Humidity
    00:00 +10°C° 0 mm 3 mps 736 mmHg 61%
    01:00 +10°C° 0 mm 3 mps 736 mmHg 65%
    02:00 +9°C° 0 mm 3 mps 736 mmHg 68%
    03:00 +9°C° 0.1 mm 3 mps 736 mmHg 73%
    04:00 +8°C° 0.1 mm 3 mps 736 mmHg 77%
    05:00 +8°C° 0.1 mm 3 mps 736 mmHg 82%
    06:00 +7°C° 0.1 mm 4 mps 736 mmHg 79%
    07:00 +8°C° 0.1 mm 6 mps 737 mmHg 77%
    08:00 +8°C° 0.1 mm 7 mps 737 mmHg 74%
    09:00 +8°C° 0 mm 7 mps 738 mmHg 71%
    10:00 +6°C° 0 mm 7 mps 738 mmHg 68%
    11:00 +6°C° 0 mm 7 mps 739 mmHg 64%
    12:00 +8°C° 0 mm 7 mps 739 mmHg 55%
    13:00 +9°C° 0 mm 7 mps 739 mmHg 45%
    14:00 +10°C° 0 mm 7 mps 739 mmHg 35%
    15:00 +9°C° 0 mm 7 mps 739 mmHg 36%
    16:00 +9°C° 0 mm 7 mps 739 mmHg 37%
    17:00 +9°C° 0 mm 6 mps 739 mmHg 38%
    18:00 +7°C° 0 mm 5 mps 740 mmHg 44%
    19:00 +6°C° 0 mm 4 mps 740 mmHg 49%
    20:00 +5°C° 0 mm 3 mps 740 mmHg 54%
    21:00 +4°C° 0 mm 3 mps 740 mmHg 56%
    22:00 +4°C° 0 mm 3 mps 741 mmHg 58%
    23:00 +3°C° 0 mm 3 mps 741 mmHg 60%

    11 April, Saturday

    Time Temperature Precipitation Wind Pressure Humidity
    00:00 +3°C° 0 mm 3 mps 741 mmHg 63%
    01:00 +3°C° 0 mm 2 mps 741 mmHg 65%
    02:00 +3°C° 0 mm 2 mps 741 mmHg 67%
    03:00 +3°C° 0 mm 2 mps 741 mmHg 69%
    04:00 +2°C° 0 mm 2 mps 741 mmHg 71%
    05:00 +2°C° 0 mm 2 mps 741 mmHg 72%
    06:00 +2°C° 0 mm 3 mps 741 mmHg 66%
    07:00 +3°C° 0 mm 3 mps 741 mmHg 60%
    08:00 +4°C° 0 mm 3 mps 741 mmHg 53%
    09:00 +6°C° 0 mm 4 mps 741 mmHg 49%
    10:00 +7°C° 0 mm 4 mps 742 mmHg 44%
    11:00 +8°C° 0 mm 4 mps 742 mmHg 39%
    12:00 +10°C° 0 mm 4 mps 742 mmHg 37%
    13:00 +10°C° 0 mm 4 mps 741 mmHg 35%
    14:00 +11°C° 0 mm 3 mps 741 mmHg 33%
    15:00 +11°C° 0 mm 3 mps 741 mmHg 35%
    16:00 +10°C° 0 mm 3 mps 741 mmHg 37%
    17:00 +10°C° 0 mm 3 mps 740 mmHg 38%
    18:00 +9°C° 0 mm 3 mps 741 mmHg 43%
    19:00 +8°C° 0 mm 2 mps 741 mmHg 48%
    20:00 +7°C° 0 mm 2 mps 741 mmHg 53%
    21:00 +6°C° 0 mm 2 mps 741 mmHg 55%
    22:00 +5°C° 0 mm 2 mps 741 mmHg 57%
    23:00 +4°C° 0 mm 2 mps 741 mmHg 59%

    12 April, Sunday

    Time Temperature Precipitation Wind Pressure Humidity
    00:00 +4°C° 0 mm 2 mps 741 mmHg 59%
    01:00 +3°C° 0 mm 2 mps 741 mmHg 58%
    02:00 +3°C° 0 mm 2 mps 741 mmHg 57%
    03:00 +2°C° 0 mm 2 mps 741 mmHg 58%
    04:00 +2°C° 0 mm 2 mps 741 mmHg 60%
    05:00 +2°C° 0 mm 2 mps 740 mmHg 61%
    06:00 +3°C° 0 mm 2 mps 740 mmHg 59%
    07:00 +5°C° 0 mm 2 mps 740 mmHg 58%
    08:00 +6°C° 0 mm 2 mps 740 mmHg 56%
    09:00 +8°C° 0 mm 2 mps 740 mmHg 51%
    10:00 +9°C° 0 mm 2 mps 740 mmHg 46%
    11:00 +12°C° 0 mm 2 mps 739 mmHg 41%
    12:00 +12°C° 0 mm 3 mps 739 mmHg 39%
    13:00 +13°C° 0 mm 3 mps 739 mmHg 37%
    14:00 +14°C° 0 mm 3 mps 738 mmHg 35%
    15:00 +14°C° 0 mm 3 mps 738 mmHg 36%
    16:00 +14°C° 0 mm 3 mps 737 mmHg 37%
    17:00 +14°C° 0 mm 4 mps 736 mmHg 38%
    18:00 +13°C° 0 mm 3 mps 736 mmHg 43%
    19:00 +12°C° 0 mm 3 mps 736 mmHg 48%
    20:00 +10°C° 0 mm 2 mps 736 mmHg 53%
    21:00 +10°C° 0 mm 3 mps 736 mmHg 55%
    22:00 +10°C° 0 mm 3 mps 735 mmHg 56%
    23:00 +9°C° 0 mm 3 mps 735 mmHg 58%
    Show more